SKYNET 1

Satellite information

Favourite Embed

Satellite Type and Status

PAYLOADIN ORBIT

Key statistics

Satellite SKYNET 1 at a glance.

Uptime

20389

Days in orbit

Revolutions

≈ 1.0

Per day

Orbit

GEO

Geostationary Orbit

Inclination

0.3

Latest

Satellite identification and parameters

Extended collection of information and parameters for SKYNET 1.

Object identification

Identified? True

Debris? False

Object name: SKYNET 1

International designator: 1969-101A

Object number (NORAD): 4250

Object ID (CCSDS): 4250

Country: UNITED KINGDOM (UK)

Current information (Y/N): Y

RCS size: LARGE

Orbital parameters

Period: 1436.042 minutes

Inclination: 0.2764 deg

SMA: 42163.654 km

Apoapsis: 35893.338 km

Periapsis: 35677.701 km

RAAN: 277.8317 deg

Eccentricy: 0.00255715

Argument of periapsis: 316.6422 deg

Mean anomaly: 220.1259 deg

Mean motion: 1.00275629 rev/day

Mean motion (dot): -0.00000114 rev/day2

B* drag term: 0.0 1/REarth

Two-line elements (TLE)

Creation date: Sept. 18, 2025, 3:57 a.m.

Reference frame: TEME

Reference center: EARTH

Epoch: Sept. 17, 2025, 1:29 p.m. UTC

TLE line 0: 0 SKYNET 1

TLE line 1: 1 04250U 69101A 25260.56213770 -.00000114 00000-0 00000-0 0 9991

TLE line 2: 2 04250 0.2764 277.8317 0025571 316.6422 220.1259 1.00275629131784

Live tracking on map

Real-time ground track for satellite SKYNET 1.

In-orbit conjunctions

There are no conjunctions computed for SKYNET 1, at the moment. Check back to stay up to date, as we update our databases every day.

Go to all conjunctions

Associated space launch

First generation satellite providing communications for the British armed forces.

SKYNET 1 was lifted into orbit during the mission ‘Thor Delta M | Skynet IA’, on board a Thor Delta M space rocket.

The launch took place on Nov. 22, 1969, 12:37 a.m. from Space Launch Complex 17A.

For more information about the launch, click the button.

Launch to space Thor Delta M | Skynet IA
Thor Delta M | Skynet IA

Agency: N/A

Status: Launch Successful

Launch date: Nov. 22, 1969, 12:37 a.m. UTC

Rocket: Thor Delta M

Launch pad: Space Launch Complex 17A

Location: Cape Canaveral SFS, FL, USA

...

Latest news about this satellite

There are no fresh news available about this satellite. Check back as we update our databases every day.


Newsletter sign-up

Weekly statistics, charts and insights to help you stay on top of the space industry.